Weather reports worldwide

Advertisment
Strathallan, United Kingdom (3144): temperature & dewpoint: 12.06.2019 23:00:00 - 18.06.2019 23:00:00 (BST)Strathallan, United Kingdom (3144): temperature -20cm & temperature -100cm: 12.06.2019 23:00:00 - 18.06.2019 23:00:00 (BST)Strathallan, United Kingdom (3144): wind speed & gusts: 12.06.2019 23:00:00 - 18.06.2019 23:00:00 (BST)Strathallan, United Kingdom (3144): wind direction: 12.06.2019 23:00:00 - 18.06.2019 23:00:00 (BST)Strathallan, United Kingdom (3144): reduced air pressure: 12.06.2019 23:00:00 - 18.06.2019 23:00:00 (BST)Strathallan, United Kingdom (3144): visibility: 12.06.2019 23:00:00 - 18.06.2019 23:00:00 (BST)Strathallan, United Kingdom (3144): precipitation: 12.06.2019 23:00:00 - 18.06.2019 23:00:00 (BST)
Date & Time tt [°C] td [°C] tt -20cm [°C] tt -100cm [°C] ff [km/h] ff [kn] fx [km/h] fx [kn] dd ppp [hPa] vv [km] rr [mm]
18.06.2019 23:00:00 - - - - - - - - - - - -
18.06.2019 22:00:00 12,6 9,7 - - 5 3 - - WSW 1010,0 45 0,0
18.06.2019 21:00:00 13,7 9,4 - - 13 7 - - SW 1009,9 45 0,0
18.06.2019 20:00:00 13,9 10,2 - - 15 8 - - WSW 1009,9 50 0,0
18.06.2019 19:00:00 14,4 10,2 - - 16 9 - - SW 1009,9 45 0,0
18.06.2019 18:00:00 15,5 10,9 - - 16 9 - - SW 1009,8 40 0,0
18.06.2019 17:00:00 14,7 9,4 - - 26 14 - - SW 1010,0 27 0,0
18.06.2019 16:00:00 15,5 8,5 - - 29 16 - - SW 1009,9 50 0,0
18.06.2019 15:00:00 16,6 10,1 - - 24 13 46 25 SW 1009,7 35 0,0
18.06.2019 14:00:00 14,5 9,1 - - 29 16 46 25 WSW 1009,6 40 0,0
18.06.2019 13:00:00 13,3 9,6 - - 18 10 - - WSW 1009,8 30 0,2
18.06.2019 12:00:00 11,8 9,7 - - 22 12 - - WSW 1009,8 9 0,0
18.06.2019 11:00:00 13,5 10,7 - - 22 12 - - SW 1009,2 30 0,0
18.06.2019 10:00:00 12,1 9,7 13,7 12,2 21 11 50 27 SW 1009,2 7 0,0
18.06.2019 09:00:00 14,1 8,5 - - 26 14 54 29 SW 1008,7 30 0,0
18.06.2019 08:00:00 13,6 9,0 - - 21 11 - - SW 1008,8 45 0,0
18.06.2019 07:00:00 12,6 9,9 - - 15 8 - - SW 1008,7 45 0,0
18.06.2019 06:00:00 11,1 9,6 - - 13 7 - - SSW 1009,0 45 0,0
18.06.2019 05:00:00 10,2 9,5 - - 9 5 - - SW 1009,3 30 0,0
18.06.2019 04:00:00 8,6 7,8 - - 8 4 - - SW 1009,7 21 0,0
18.06.2019 03:00:00 10,1 8,7 - - 9 5 - - WSW 1009,8 40 0,2
18.06.2019 02:00:00 10,6 8,8 - - 5 3 - - SW 1010,1 50 0,0
18.06.2019 01:00:00 11,3 8,7 - - 8 4 - - SW 1010,2 20 0,0
18.06.2019 00:00:00 11,3 8,8 - - 8 4 - - SW 1010,1 50 0,0
17.06.2019 23:00:00 12,2 9,0 - - 11 6 - - SW 1009,8 50 0,0
17.06.2019 22:00:00 12,6 8,9 - - 13 7 - - SW 1009,7 50 0,0
17.06.2019 21:00:00 13,1 9,1 - - 18 10 - - SW 1009,2 50 0,0
17.06.2019 20:00:00 13,8 8,7 - - 21 11 - - SW 1008,7 45 0,0
17.06.2019 19:00:00 15,0 8,9 - - 26 14 - - SW 1008,2 30 0,0
17.06.2019 18:00:00 15,1 9,5 - - 26 14 54 29 SW 1008,0 26 0,0
17.06.2019 17:00:00 15,4 10,2 - - 22 12 50 27 SW 1007,6 50 0,2
17.06.2019 16:00:00 13,7 10,5 - - 22 12 - - SSW 1007,7 16 0,2
17.06.2019 15:00:00 13,6 10,2 - - 11 6 - - SSW 1007,8 50 0,2
17.06.2019 14:00:00 15,1 9,6 - - 13 7 - - SSW 1007,6 30 0,0
17.06.2019 13:00:00 14,4 11,9 - - 18 10 - - SW 1007,8 16 0,4
17.06.2019 12:00:00 15,1 9,5 - - 18 10 - - SW 1007,6 23 0,0
17.06.2019 11:00:00 14,1 8,9 - - 22 12 - - SW 1007,6 50 0,0
17.06.2019 10:00:00 13,5 9,3 13,7 12,2 21 11 - - SW 1007,7 40 0,0
17.06.2019 09:00:00 12,8 9,8 - - 18 10 - - SW 1007,6 30 0,0
17.06.2019 08:00:00 11,3 9,5 - - 15 8 - - SSW 1007,5 30 0,2
17.06.2019 07:00:00 12,3 9,3 - - 18 10 - - SW 1007,0 35 0,0
17.06.2019 06:00:00 11,6 8,9 - - 13 7 - - SW 1006,6 50 0,0
17.06.2019 05:00:00 11,6 9,2 - - 13 7 - - SW 1006,0 45 0,0
17.06.2019 04:00:00 11,8 9,3 - - 13 7 - - SW 1005,6 50 0,0
17.06.2019 03:00:00 12,0 10,4 - - 18 10 - - SW 1005,2 14 0,2
17.06.2019 02:00:00 12,4 11,0 - - 13 7 - - S 1004,9 50 0,2
17.06.2019 01:00:00 10,7 10,1 - - 13 7 - - E 1005,5 20 1,6
17.06.2019 00:00:00 11,1 9,6 - - 8 4 - - E 1006,6 5 1,2
16.06.2019 23:00:00 11,5 9,3 - - 8 4 - - NE 1007,0 50 0,0
16.06.2019 22:00:00 12,3 8,9 - - 4 2 - - ENE 1007,9 50 0,0
16.06.2019 21:00:00 13,1 8,6 - - 4 2 - - SE 1008,1 50 0,0
16.06.2019 20:00:00 13,7 9,8 - - 2 1 - - ENE 1008,5 45 0,0
16.06.2019 19:00:00 13,4 10,6 - - 5 3 - - E 1008,8 45 0,0
16.06.2019 18:00:00 13,4 10,5 - - 4 2 - - ESE 1009,1 40 0,0
16.06.2019 17:00:00 13,0 9,9 - - 5 3 - - E 1009,4 50 0,0
16.06.2019 16:00:00 11,1 9,2 - - 2 1 - - SSW 1009,8 45 0,8
16.06.2019 15:00:00 13,2 9,8 - - 4 2 - - SW 1009,5 50 0,2
16.06.2019 14:00:00 12,3 8,2 - - 22 12 - - SW 1009,7 40 0,2
16.06.2019 13:00:00 11,9 7,3 - - 18 10 - - SSE 1009,7 50 0,0
16.06.2019 12:00:00 13,3 9,9 - - 13 7 - - WSW 1009,2 35 0,2
16.06.2019 11:00:00 12,8 10,7 - - 9 5 - - W 1009,3 30 0,4
16.06.2019 10:00:00 13,0 8,7 13,9 12,2 15 8 - - SW 1009,1 50 0,0
16.06.2019 09:00:00 12,3 9,2 - - 13 7 - - WSW 1009,1 45 0,2
16.06.2019 08:00:00 11,0 10,0 - - 2 1 - - NW 1009,0 28 0,0
16.06.2019 07:00:00 9,5 9,2 - - 4 2 - - SSW 1008,7 30 0,0
16.06.2019 06:00:00 7,2 6,9 - - 4 2 - - SW 1008,6 26 0,0
16.06.2019 05:00:00 5,9 5,2 - - 5 3 - - WNW 1008,3 18 0,0
16.06.2019 04:00:00 6,1 5,1 - - 4 2 - - W 1008,5 19 0,0
16.06.2019 03:00:00 7,7 6,7 - - 2 1 - - W 1008,5 35 0,0
16.06.2019 02:00:00 9,0 7,8 - - 4 2 - - NW 1008,6 45 0,0
16.06.2019 01:00:00 9,5 7,6 - - 2 1 - - WSW 1008,9 50 0,0
16.06.2019 00:00:00 10,6 7,3 - - 5 3 - - WSW 1008,7 50 0,0
15.06.2019 23:00:00 12,1 7,6 - - 9 5 - - SW 1008,8 40 0,0
15.06.2019 22:00:00 12,7 8,7 - - 4 2 - - WSW 1008,4 35 0,0
15.06.2019 21:00:00 14,1 7,7 - - 11 6 - - SSW 1008,1 45 0,0
15.06.2019 20:00:00 15,6 7,3 - - 11 6 - - S 1007,8 29 0,0
15.06.2019 19:00:00 15,9 7,7 - - 9 5 - - SE 1007,5 35 0,0
15.06.2019 18:00:00 16,2 10,9 - - 13 7 - - E 1007,6 50 0,0
15.06.2019 17:00:00 17,0 10,8 - - 11 6 - - ENE 1007,4 28 0,0
15.06.2019 16:00:00 16,8 10,9 - - 16 9 - - E 1007,7 35 0,0
15.06.2019 15:00:00 16,4 10,9 - - 13 7 - - E 1008,0 22 0,0
15.06.2019 14:00:00 16,8 9,8 - - 18 10 - - ESE 1008,0 50 0,0
15.06.2019 13:00:00 15,8 9,6 - - 15 8 - - E 1008,1 35 0,0
15.06.2019 12:00:00 15,8 10,9 - - 11 6 - - E 1008,3 19 0,0
15.06.2019 11:00:00 14,2 10,4 - - 11 6 - - E 1008,5 40 0,0
15.06.2019 10:00:00 13,7 11,0 13,5 12,2 9 5 - - ENE 1008,5 40 0,0
15.06.2019 09:00:00 13,4 11,3 - - 9 5 - - ENE 1008,5 26 0,0
15.06.2019 08:00:00 12,0 11,0 - - 8 4 - - NE 1008,7 27 0,0
15.06.2019 07:00:00 10,9 10,2 - - 8 4 - - ENE 1008,6 23 0,0
15.06.2019 06:00:00 10,1 9,5 - - 2 1 - - NE 1008,7 13 0,4
15.06.2019 05:00:00 9,7 8,9 - - 2 1 - - E 1008,7 11 0,6
15.06.2019 04:00:00 10,0 8,7 - - 2 1 - - ESE 1008,7 19 0,0
15.06.2019 03:00:00 9,9 7,8 - - 4 2 - - ENE 1008,6 45 0,0
15.06.2019 02:00:00 9,9 7,2 - - 5 3 - - E 1008,9 40 0,0
15.06.2019 01:00:00 10,6 7,0 - - 5 3 - - E 1009,0 45 0,0
15.06.2019 00:00:00 10,7 7,2 - - 8 4 - - ENE 1009,0 50 0,0
14.06.2019 23:00:00 11,2 7,1 - - 5 3 - - E 1008,7 50 0,0
14.06.2019 22:00:00 12,1 7,0 - - 4 2 - - ESE 1008,2 50 0,0
14.06.2019 21:00:00 13,5 7,0 - - 4 2 - - SSE 1007,5 50 0,0
14.06.2019 20:00:00 13,3 6,3 - - 9 5 - - SSW 1007,1 50 0,0
14.06.2019 19:00:00 13,9 7,3 - - 8 4 - - SSW 1006,9 35 0,0
14.06.2019 18:00:00 14,3 5,9 - - 9 5 - - S 1006,2 50 0,0
14.06.2019 17:00:00 15,0 5,8 - - 15 8 - - SW 1005,5 45 0,0
14.06.2019 16:00:00 14,9 7,0 - - 9 5 - - S 1005,4 30 0,0
14.06.2019 15:00:00 12,9 6,9 - - 11 6 - - SE 1005,4 21 0,0
14.06.2019 14:00:00 13,1 5,0 - - 9 5 - - S 1005,2 45 0,0
14.06.2019 13:00:00 13,3 5,4 - - 5 3 - - SSE 1004,8 50 0,0
14.06.2019 12:00:00 12,5 5,3 - - 11 6 - - SW 1004,7 45 0,0
14.06.2019 11:00:00 12,9 5,1 - - 15 8 - - SSW 1004,3 30 0,0
14.06.2019 10:00:00 11,4 7,0 13,2 12,2 13 7 - - SW 1004,2 45 0,0
14.06.2019 09:00:00 10,2 6,1 - - 13 7 - - SSW 1003,8 40 0,0
14.06.2019 08:00:00 9,3 5,8 - - 15 8 - - SSW 1003,1 40 0,0
14.06.2019 07:00:00 8,9 6,5 - - 9 5 - - SSW 1002,7 50 0,2
14.06.2019 06:00:00 8,3 6,9 - - 4 2 - - S 1002,2 19 0,0
14.06.2019 05:00:00 8,6 7,8 - - 5 3 - - SSW 1001,9 12 0,0
14.06.2019 04:00:00 8,4 8,1 - - 4 2 - - SSW 1001,8 12 0,0
14.06.2019 03:00:00 8,4 8,1 - - 0 0 - - N 1002,0 6 0,2
14.06.2019 02:00:00 8,5 8,1 - - 0 0 - - N 1002,0 9 0,2
14.06.2019 01:00:00 8,6 8,0 - - 2 1 - - SE 1002,3 24 0,0
14.06.2019 00:00:00 9,0 8,4 - - 2 1 - - ENE 1002,3 25 0,0
13.06.2019 23:00:00 9,1 8,3 - - 2 1 - - ESE 1002,3 50 0,4
13.06.2019 22:00:00 9,5 8,3 - - 4 2 - - S 1002,0 15 0,2
13.06.2019 21:00:00 10,1 7,9 - - 2 1 - - ESE 1001,6 50 0,0
13.06.2019 20:00:00 10,5 7,6 - - 5 3 - - NNE 1001,5 26 0,0
13.06.2019 19:00:00 11,1 7,4 - - 8 4 - - ENE 1001,2 45 0,0
13.06.2019 18:00:00 13,3 6,6 - - 4 2 - - ESE 1001,4 40 0,0
13.06.2019 17:00:00 13,0 5,7 - - 2 1 - - NNW 1001,9 40 0,0
13.06.2019 16:00:00 12,9 6,5 - - 8 4 - - ESE 1002,5 40 0,0
13.06.2019 15:00:00 12,5 5,6 - - 9 5 - - E 1002,9 50 0,0
13.06.2019 14:00:00 12,0 6,0 - - 9 5 - - ENE 1003,6 35 0,0
13.06.2019 13:00:00 11,0 5,2 - - 5 3 - - E 1004,3 50 0,0
13.06.2019 12:00:00 10,3 4,8 - - 5 3 - - NNE 1004,9 50 0,0
13.06.2019 11:00:00 9,9 4,4 - - 11 6 - - NNE 1005,3 40 0,0
13.06.2019 10:00:00 9,4 4,6 13,0 12,0 13 7 - - N 1006,4 50 0,0
13.06.2019 09:00:00 8,7 4,2 - - 15 8 - - N 1007,1 50 0,0
13.06.2019 08:00:00 8,7 4,0 - - 11 6 - - N 1007,6 50 0,0
13.06.2019 07:00:00 8,4 4,6 - - 8 4 - - NNW 1008,4 50 0,0
13.06.2019 06:00:00 8,3 4,4 - - 9 5 - - NNW 1009,6 50 0,0
13.06.2019 05:00:00 8,4 4,8 - - 11 6 - - N 1009,9 50 0,0
13.06.2019 04:00:00 8,7 5,7 - - 11 6 - - N 1010,0 50 0,0
13.06.2019 03:00:00 8,6 6,1 - - 8 4 - - WNW 1010,6 50 0,0
13.06.2019 02:00:00 9,4 5,7 - - 9 5 - - NE 1011,6 50 0,0
13.06.2019 01:00:00 10,1 6,4 - - 15 8 - - NNE 1012,4 50 0,0
13.06.2019 00:00:00 9,9 7,4 - - 8 4 - - NNE 1013,4 50 0,0
12.06.2019 23:00:00 10,1 7,6 - - 13 7 - - NE 1014,3 50 0,0

tt = temperature
td = dewpoint
tt -20cm = temperature -20cm
tt -100cm = temperature -100cm
ff = wind speed
fx = gusts
dd = wind direction
ppp = reduced air pressure
vv = visibility
rr = precipitation

Next stations